sat.trackr.live / text

‹ back to catalog

STARLINK-32234

NORAD 60414 · 2024-141S

PAYLOAD ACTIVE UNKNOWN

§ Identity

Operator
Country
US
Launch date
2024-08-10
Launch site
AFETR
Launch vehicle
Mass (kg)
RCS (m²)

Purposes: comms

External: N2YO · Heavens-Above · Gunter

§ Orbital elements

Epoch: 2026-05-24T17:21:25.572960Z

Period
94.01 min
Inclination
53.1583°
Eccentricity
0.0001031
Mean motion
15.31704421 rev/d
Perigee alt
470.0 km
Apogee alt
471.4 km
Semi-major
6,848.9 km
B*
1.0785e-4
RAAN
249.2814°
Arg perigee
97.2072°
Mean anomaly
262.9046°
Rev number
10,122

§ Raw data

STARLINK-322341 60414U 24141S   26144.72321265  .00002983  00000+0  10785-3 0  99972 60414  53.1583 249.2814 0001031  97.2072 262.9046 15.31704421101227

JSON: /api/v1/satellites/60414 · /tle

For live sub-satellite position, see the globe view (requires WebGL).

§ Visibility from observer

Set your observer location to see the next 7 days of passes ≥ 10°. The values pass through the URL so the page stays shareable.

No JS? Fill the form by hand. The geolocation button needs JavaScript.